EW6217 Weather Reports


Display with metric or nautical units.
time (UTC)temp
F
wind
direction
speed
MPH
gust
MPH
rain 1hr
in
rain 24hr
in
rain mn
in
humidity
%
barometer
mb
20190521152330 77 46 3.0 9.0 0.00 0.00 0.00 62 1015.2
20190521151315 77 4 4.0 7.0 0.00 0.00 0.00 62 1015.2
20190521150327 77 358 1.0 6.0 0.00 0.00 0.00 63 1015.1
20190521145317 76 25 3.0 8.0 0.00 0.00 0.00 64 1015.0
20190521144322 76 356 4.0 8.0 0.00 0.00 0.00 68 1014.8
20190521143314 76 29 2.0 7.0 0.00 0.00 0.00 68 1014.7
20190521142317 76 20 1.0 6.0 0.00 0.00 0.00 70 1014.7
20190521141330 76 13 2.0 5.0 0.00 0.00 0.00 70 1014.6
20190521140316 76 298 2.0 8.0 0.00 0.00 0.00 71 1014.5
20190521135325 76 9 3.0 11.0 0.00 0.00 0.00 73 1014.6
20190521134319 75 20 1.0 10.0 0.00 0.00 0.00 76 1014.5
20190521133314 75 60 3.0 9.0 0.00 0.00 0.00 77 1014.4
20190521132329 75 53 1.0 6.0 0.00 0.00 0.00 77 1014.4
20190521131316 75 39 2.0 9.0 0.00 0.00 0.00 78 1014.4
20190521130320 75 29 1.0 8.0 0.00 0.00 0.00 79 1014.4
20190521125316 74 16 2.0 9.0 0.00 0.00 0.00 78 1014.3
20190521124316 74 341 2.0 5.0 0.00 0.00 0.00 81 1014.3
20190521123327 74 2 2.0 6.0 0.00 0.00 0.00 82 1014.1
20190521122322 73 6 2.0 5.0 0.00 0.00 0.00 83 1013.9
20190521121317 73 31 1.0 3.0 0.00 0.00 0.00 86 1013.9
20190521120325 73 4 0.0 1.0 0.00 0.00 0.00 88 1013.8
20190521115328 72 14 0.0 2.0 0.00 0.00 0.00 89 1013.8
20190521114327 72 360 0.0 1.0 0.00 0.00 0.00 91 1013.5
20190521113330 71 236 0.0 1.0 0.00 0.00 0.00 92 1013.3
20190521112325 71 229 0.0 0.0 0.00 0.00 0.00 92 1013.5
20190521111324 71 229 0.0 0.0 0.00 0.00 0.00 92 1013.4
20190521110319 70 229 0.0 0.0 0.00 0.00 0.00 92 1013.4
20190521105318 70 229 0.0 0.0 0.00 0.00 0.00 92 1013.1
20190521104315 70 229 0.0 0.0 0.00 0.00 0.00 91 1012.8
20190521103326 70 229 0.0 0.0 0.00 0.00 0.00 91 1012.8
20190521102327 71 230 0.0 0.0 0.00 0.00 0.00 90 1012.7
20190521101313 71 229 0.0 0.0 0.00 0.00 0.00 89 1012.7
20190521100322 71 229 0.0 0.0 0.00 0.00 0.00 89 1012.5
20190521095321 72 229 0.0 2.0 0.00 0.00 0.00 88 1012.6
20190521094313 72 226 1.0 5.0 0.00 0.00 0.00 88 1012.5
20190521093326 72 219 0.0 4.0 0.00 0.00 0.00 88 1012.4
20190521092325 72 219 1.0 5.0 0.00 0.00 0.00 88 1012.4
20190521091322 72 196 0.0 1.0 0.00 0.00 0.00 89 1012.3
20190521090319 72 217 1.0 4.0 0.00 0.00 0.00 89 1012.3
20190521085323 72 233 0.0 1.0 0.00 0.00 0.00 90 1012.2
20190521084322 72 214 0.0 1.0 0.00 0.00 0.00 90 1012.1
20190521082327 72 214 0.0 3.0 0.00 0.00 0.00 90 1011.9
20190521081319 73 217 0.0 2.0 0.00 0.00 0.00 90 1011.9
20190521073317 73 228 0.0 3.0 0.00 0.00 0.00 88 1011.7
20190521072312 74 236 0.0 1.0 0.00 0.00 0.00 88 1011.7
20190521070325 74 221 0.0 5.0 0.00 0.00 0.00 88 1011.9
20190521065330 74 226 0.0 5.0 0.00 0.00 0.00 87 1011.9
20190521063315 74 245 2.0 6.0 0.00 0.00 0.00 87 1011.8
20190521061326 74 230 2.0 7.0 0.00 0.00 0.00 87 1011.9
20190521060331 74 165 1.0 5.0 0.00 0.00 0.00 87 1011.8
20190521055331 74 236 2.0 7.0 0.00 0.00 0.00 86 1011.8
20190521054325 75 209 2.0 4.0 0.00 0.00 0.00 85 1011.9
20190521053318 75 225 2.0 6.0 0.00 0.00 0.00 85 1012.0
20190521052320 75 208 1.0 4.0 0.00 0.00 0.00 85 1012.1
20190521051312 75 231 0.0 6.0 0.00 0.00 0.00 84 1012.4
20190521050326 75 230 0.0 4.0 0.00 0.00 0.00 84 1012.5
20190521045331 75 223 0.0 1.0 0.00 0.00 0.00 83 1012.6
20190521044317 76 212 0.0 4.0 0.00 0.00 0.00 82 1012.8
20190521043312 76 252 0.0 4.0 0.00 0.00 0.00 80 1013.0
20190521042321 76 279 0.0 2.0 0.00 0.00 0.00 79 1013.2
20190521041331 76 229 1.0 7.0 0.00 0.00 0.00 78 1013.2
20190521040321 76 217 1.0 4.0 0.00 0.00 0.00 78 1013.3
20190521035318 76 210 0.0 3.0 0.00 0.00 0.00 78 1013.4
20190521034312 76 253 1.0 9.0 0.00 0.00 0.00 78 1013.1
20190521033327 76 249 3.0 6.0 0.00 0.00 0.00 77 1012.8
20190521032328 76 220 2.0 8.0 0.00 0.00 0.00 77 1012.6
20190521031324 76 224 3.0 8.0 0.00 0.00 0.00 78 1012.7
20190521030312 76 215 2.0 9.0 0.00 0.00 0.00 79 1012.7
20190521025330 76 230 2.0 7.0 0.00 0.00 0.00 80 1012.6
20190521024328 76 255 2.0 8.0 0.00 0.00 0.00 81 1012.5
20190521023331 77 234 0.0 6.0 0.00 0.00 0.00 81 1012.6
20190521022315 77 232 3.0 7.0 0.00 0.00 0.00 80 1012.6
20190521021315 77 196 2.0 7.0 0.00 0.00 0.00 80 1012.4
20190521020325 77 240 2.0 6.0 0.00 0.00 0.00 80 1012.3
20190521015321 78 218 2.0 7.0 0.00 0.00 0.00 79 1012.3
20190521014317 78 230 2.0 6.0 0.00 0.00 0.00 79 1012.3
20190521013326 78 222 2.0 7.0 0.00 0.00 0.00 79 1012.3
20190521012321 78 150 3.0 6.0 0.00 0.00 0.00 79 1012.2
20190521011322 78 171 2.0 10.0 0.00 0.00 0.00 78 1012.1
20190521010313 78 242 1.0 6.0 0.00 0.00 0.00 79 1011.9
20190521005311 79 233 1.0 5.0 0.00 0.00 0.00 78 1011.9
20190521004327 79 222 1.0 5.0 0.00 0.00 0.00 78 1011.8
20190521003323 79 279 0.0 4.0 0.00 0.00 0.00 77 1011.6
20190521002320 80 240 0.0 4.0 0.00 0.00 0.00 76 1011.7
20190521001316 80 321 1.0 4.0 0.00 0.00 0.00 75 1011.6
20190521000328 81 258 1.0 4.0 0.00 0.00 0.00 74 1011.6
20190520235326 81 266 1.0 4.0 0.00 0.00 0.00 73 1011.4
20190520234326 82 191 1.0 3.0 0.00 0.00 0.00 72 1011.3
20190520233315 82 238 1.0 3.0 0.00 0.00 0.00 70 1011.4
20190520232329 83 229 1.0 3.0 0.00 0.00 0.00 69 1011.3
20190520231326 84 248 1.0 3.0 0.00 0.00 0.00 66 1011.0
20190520230315 85 226 1.0 3.0 0.00 0.00 0.00 65 1011.1
20190520225317 86 264 2.0 5.0 0.00 0.00 0.00 60 1011.1
20190520224315 86 218 1.0 6.0 0.00 0.00 0.00 53 1011.0
20190520223323 87 207 2.0 8.0 0.00 0.00 0.00 52 1011.2
20190520222317 87 258 2.0 7.0 0.00 0.00 0.00 51 1011.1